Tracking 19476 objects as of 17-Jan-2019
HD Live streaming from Space Station
objects crossing your sky now

FIRST-MOVE

Track FIRST-MOVE now!
10-day predictions
FIRST-MOVE is classified as:


NORAD ID: 39439
Int'l Code: 2013-066Z
Perigee: 585.1 km
Apogee: 677.2 km
Inclination: 97.6 °
Period: 97.2 minutes
Semi major axis: 7002 km
RCS: Unknown
Launch date: November 21, 2013
Source: Germany (GER)
Launch site: Orenburg, Russia (OREN)

Uplink (MHz): 435.520
Downlink (MHz): 145.970
Beacon (MHz): 145.970
Mode: 1200bps BPSK CW
Call sign: MOVE1
Status: Active

aabbcc
Your satellite tracking list
Your tracking list is empty




NASA's NSSDC Master Catalog

Two Line Element Set (TLE):
1 39439U 13066Z   19016.87930972 +.00000320 +00000-0 +45539-4 0  9991
2 39439 097.5789 038.4362 0065777 174.9124 185.2773 14.81690367277229
Source of the keplerian elements: Caltech